Wind_Speed
110 109 105 103 102 99 96 96 95 94 93 92 90 88 86 86 87 85 85 83 83 83 84 82 78 77 70 67 64 63 63 62 64 66 56 61 62 54 59 63 61 64 68
109 107 107 105 103 103 101 99 99 97 97 95 91 88 87 87 86 84 83 82 80 80 78 76 77 74 70 66 62 65 64 61 57 56 61 64 61 61 60 66 67 68 74
100 101 104 108 109 109 105 102 100 98 97 95 93 91 90 89 86 84 83 83 80 77 75 72 72 69 66 63 63 67 60 54 61 54 67 63 60 62 68 68 67 71 75
93 94 97 99 100 102 103 103 102 100 97 95 94 93 91 89 88 87 85 84 81 78 74 70 68 65 64 65 65 59 56 61 63 66 68 66 64 65 66 66 69 70 66
90 93 91 89 91 91 89 90 93 95 95 95 94 93 91 89 87 86 84 83 81 80 76 72 69 65 61 60 61 63 60 65 64 64 68 59 63 64 68 71 67 56 61
82 86 87 89 90 88 87 84 83 84 86 88 91 92 91 89 87 86 85 83 79 77 74 72 71 68 63 58 56 56 54 60 59 58 60 61 64 67 69 68 65 55 61
72 74 79 84 85 84 83 82 80 80 81 82 83 83 84 86 87 86 84 82 79 76 72 70 69 69 65 60 56 53 48 55 56 52 57 62 65 67 66 61 47 52 52
71 73 76 81 82 82 79 77 79 79 80 80 80 80 80 80 81 81 79 77 75 73 71 68 65 64 64 59 55 51 49 47 49 44 54 59 58 54 51 42 47 55 54
63 70 74 75 76 79 80 79 78 80 83 85 84 83 80 77 77 76 76 73 71 69 68 67 63 61 59 55 51 49 47 44 45 40 46 53 50 45 45 44 48 51 52
50 58 64 71 75 78 83 86 83 80 80 84 86 87 85 80 77 73 72 70 69 64 63 62 59 58 54 50 48 47 45 41 38 44 46 44 41 46 44 41 46 49 52
49 53 58 64 71 73 77 78 78 77 77 76 76 76 75 79 76 74 70 65 63 59 57 57 56 53 50 48 48 45 48 47 40 39 34 31 35 34 37 43 47 51 56
40 44 47 54 60 70 72 72 72 73 72 72 66 66 64 59 59 64 63 59 58 56 54 53 54 48 49 48 48 47 47 43 38 29 27 37 39 35 39 44 48 52 53
33 34 38 43 49 57 61 65 67 66 63 61 58 60 46 39 37 41 42 54 56 52 50 51 49 46 48 47 41 39 43 47 35 28 35 39 34 36 41 44 49 53 44
23 30 33 35 39 44 48 55 57 59 59 60 52 39 39 39 38 47 53 57 56 57 48 49 46 45 44 43 41 39 38 36 28 30 34 36 36 41 41 44 51 46 43
16 17 20 24 27 29 33 39 43 46 47 45 43 42 39 39 45 51 57 63 64 54 50 51 51 50 47 46 44 39 36 32 28 32 34 36 39 41 45 48 49 48 29
4 7 9 13 18 20 23 25 27 30 33 35 35 35 37 41 47 50 47 51 56 52 56 61 56 51 41 43 42 35 30 28 30 30 34 38 43 44 50 50 45 32 21
7 4 3 6 11 12 14 15 17 20 24 26 28 31 32 36 40 37 41 52 53 61 68 62 53 48 41 36 34 34 32 26 28 32 37 42 48 51 50 43 29 20 15
11 6 3 5 8 9 12 14 17 19 20 20 23 25 27 31 34 43 52 52 65 75 69 60 51 46 40 39 34 28 28 28 32 36 41 47 48 47 43 33 21 18 16
32 27 20 13 9 8 9 10 12 14 16 19 21 25 31 36 45 50 54 65 77 76 64 56 53 47 37 30 27 26 30 32 34 38 41 44 42 35 27 18 23 19 15
46 41 39 35 32 25 21 20 20 21 22 24 31 40 46 50 55 61 69 75 79 64 58 51 45 37 29 27 24 22 24 26 29 31 26 19 13 13 20 24 21 17 14
60 60 53 55 52 45 36 27 30 34 37 39 43 48 51 57 63 66 70 74 62 55 52 47 40 29 28 20 17 18 18 16 11 10 11 12 15 19 20 18 15 10 7
56 64 66 67 66 62 58 51 44 38 36 43 50 56 61 64 67 68 65 62 57 52 48 40 32 26 19 15 17 19 18 16 14 12 10 9 9 9 8 6 7 9 11
41 53 51 52 56 58 61 63 53 47 43 41 42 47 61 68 67 63 59 55 48 38 32 30 26 19 17 24 24 21 19 16 11 8 6 6 5 5 6 7 9 9 9
33 35 41 41 42 43 44 48 47 46 44 45 39 38 37 40 42 40 39 38 35 31 29 24 22 23 30 28 25 22 16 12 8 6 7 5 4 7 9 9 9 9 9
21 23 24 26 29 29 26 28 33 37 34 29 32 32 35 36 34 32 34 34 31 29 26 27 29 35 32 28 22 16 10 7 5 5 7 7 7 8 9 10 9 7 8
17 16 14 14 15 15 15 15 18 19 23 24 15 13 12 15 18 22 24 26 29 29 30 31 41 36 29 23 18 13 9 8 6 7 7 8 10 11 11 9 7 8 9
Wind_Direction
248 249 251 251 252 252 251 250 250 250 250 251 251 251 251 252 252 252 253 254 255 257 258 260 261 262 261 263 267 270 271 276 277 277 285 291 291 296 291 301 302 306 311
247 248 248 248 249 250 250 250 250 250 250 250 250 251 251 251 252 252 252 253 253 254 256 257 258 260 262 262 268 268 271 281 278 279 286 291 292 293 293 300 305 308 311
246 248 248 249 249 248 247 248 250 252 252 252 252 251 251 252 252 252 253 253 253 253 253 254 255 258 259 255 260 262 271 271 275 277 281 290 292 289 294 300 305 312 311
246 246 247 248 250 252 252 252 251 251 252 253 253 252 252 251 251 251 251 252 253 253 253 252 253 254 254 253 255 261 265 266 268 279 277 284 284 287 293 298 302 312 310
247 248 248 249 250 250 250 250 251 250 250 250 250 250 250 250 251 251 251 250 251 251 251 251 251 251 250 251 253 254 260 266 269 272 275 277 276 282 289 295 301 307 306
247 248 248 247 247 250 250 250 249 249 249 248 249 248 248 248 248 249 249 249 249 249 249 248 248 248 249 250 251 252 256 262 266 270 271 272 274 282 290 295 300 299 307
249 248 247 246 248 249 248 246 246 246 247 247 247 246 247 247 246 246 246 246 247 247 246 245 246 247 247 247 249 250 249 256 264 264 270 275 279 282 288 294 296 303 306
244 244 244 245 246 247 246 245 246 246 246 246 246 245 245 245 245 245 245 244 244 245 244 243 244 246 246 245 246 248 249 250 256 265 268 273 278 287 292 294 297 301 308
239 242 245 246 246 247 249 248 243 241 242 242 243 245 245 245 243 243 243 243 242 240 240 239 238 240 244 242 243 243 244 249 258 248 263 272 277 282 284 294 298 301 309
231 233 236 238 241 241 242 244 246 245 243 242 243 244 244 243 243 244 242 240 240 238 237 235 232 233 237 236 234 237 235 245 247 256 261 267 266 274 287 291 296 305 313
237 235 232 232 236 240 243 246 248 250 249 250 249 248 248 248 244 242 241 240 239 236 233 231 226 225 228 228 229 230 234 237 240 250 257 265 280 277 287 290 299 309 314
241 241 238 237 237 239 243 246 250 252 255 258 259 256 254 253 251 244 234 231 235 232 227 222 216 213 218 221 225 231 232 230 230 237 253 260 271 285 287 291 302 309 313
233 234 235 237 239 240 241 245 249 254 259 262 260 259 257 249 240 235 225 221 222 224 221 212 203 204 211 216 219 215 223 227 218 226 244 258 272 281 284 296 304 309 309
226 227 231 234 236 240 243 243 243 246 249 251 255 249 248 228 209 207 207 198 209 212 207 199 188 195 200 197 201 208 213 213 219 240 249 257 268 279 289 295 303 304 306
240 240 237 243 243 240 239 239 242 243 246 247 246 243 236 218 207 209 210 203 196 200 189 180 178 180 184 191 196 199 209 217 230 238 251 259 273 282 290 295 299 302 291
195 213 224 234 243 241 243 244 243 241 240 238 235 230 223 217 210 210 208 201 190 180 170 170 172 171 180 194 197 206 213 226 237 248 258 267 275 283 289 293 295 287 268
25 6 290 263 249 241 235 237 238 234 231 224 218 215 211 209 209 196 180 185 173 164 164 167 163 172 188 197 202 213 218 228 241 250 263 272 279 284 287 287 281 262 232
57 69 107 199 211 204 201 200 202 204 207 209 202 197 194 192 181 174 174 167 161 159 161 158 165 186 190 197 204 220 223 243 259 267 271 278 282 282 280 271 249 218 198
68 71 73 85 105 124 151 164 172 174 174 174 170 166 163 162 162 166 161 159 157 158 155 164 179 187 191 195 207 219 238 251 262 274 275 276 276 268 252 218 192 187 192
67 73 75 77 78 86 99 118 130 138 144 150 152 151 147 148 154 157 153 154 155 155 162 173 177 174 184 198 211 228 251 267 268 270 267 256 240 204 171 169 171 181 202
76 73 74 79 78 77 80 96 113 121 126 132 136 136 141 148 148 148 148 153 155 161 170 171 168 170 182 198 225 248 248 245 217 185 137 123 129 138 147 160 178 201 240
69 68 68 71 76 81 80 80 84 93 113 125 131 135 138 142 141 143 146 153 161 167 170 165 172 177 193 214 206 203 196 180 178 157 144 147 150 154 162 182 210 234 249
60 61 61 55 62 67 70 73 78 90 100 108 124 137 145 145 146 148 154 160 163 166 167 168 175 184 193 180 180 178 178 176 159 150 153 154 165 186 198 215 228 239 234
46 54 60 56 57 61 63 73 89 91 95 103 105 109 122 132 141 150 159 164 166 170 170 176 179 179 171 172 170 172 162 149 140 161 188 192 211 227 233 234 228 225 230
54 56 52 53 57 58 59 60 71 82 83 89 107 109 121 136 141 148 156 167 168 174 178 176 177 169 173 173 177 171 155 160 178 191 213 235 253 244 229 231 217 238 257
61 53 50 46 48 53 55 61 66 81 93 101 99 100 123 133 153 167 175 179 183 185 183 179 169 173 174 178 172 164 171 180 193 220 241 273 271 244 216 209 236 258 266
Height
10516 10524 10541 10551 10558 10569 10579 10585 10592 10601 10607 10615 10625 10635 10643 10650 10656 10664 10672 10678 10686 10691 10699 10706 10709 10714 10719 10723 10727 10727 10730 10733 10732 10732 10730 10728 10729 10726 10720 10719 10715 10711 10705
10486 10503 10513 10519 10531 10539 10549 10558 10566 10576 10585 10595 10605 10613 10621 10627 10634 10643 10650 10657 10666 10672 10679 10688 10692 10699 10705 10710 10713 10715 10720 10721 10721 10722 10719 10717 10718 10714 10711 10709 10705 10701 10695
10463 10474 10482 10490 10501 10511 10523 10534 10543 10552 10564 10573 10583 10593 10601 10609 10617 10625 10632 10637 10645 10653 10660 10670 10675 10685 10690 10695 10701 10706 10711 10710 10711 10713 10708 10709 10708 10705 10701 10700 10695 10692 10686
10441 10450 10457 10466 10475 10486 10500 10512 10522 10532 10542 10551 10559 10568 10577 10586 10594 10602 10611 10618 10627 10636 10644 10655 10661 10669 10675 10683 10690 10696 10696 10698 10701 10702 10700 10700 10698 10697 10694 10691 10687 10684 10677
10417 10425 10436 10444 10451 10461 10474 10486 10497 10509 10518 10526 10534 10544 10554 10563 10571 10579 10588 10598 10607 10615 10626 10637 10644 10652 10661 10669 10676 10682 10685 10686 10690 10691 10690 10691 10688 10686 10684 10682 10680 10676 10670
10398 10406 10415 10423 10430 10440 10452 10463 10473 10481 10489 10499 10507 10518 10528 10537 10548 10557 10566 10577 10587 10597 10608 10617 10625 10635 10645 10654 10661 10669 10674 10676 10678 10680 10679 10679 10678 10676 10675 10674 10671 10666 10662
10380 10388 10396 10402 10409 10421 10430 10440 10449 10457 10466 10473 10482 10492 10501 10511 10520 10530 10541 10555 10568 10579 10590 10600 10607 10617 10629 10640 10648 10655 10663 10665 10669 10671 10671 10669 10669 10666 10667 10665 10661 10657 10651
10358 10365 10372 10380 10388 10394 10405 10419 10428 10435 10441 10448 10457 10466 10477 10487 10498 10509 10520 10536 10548 10561 10572 10583 10593 10602 10611 10625 10635 10643 10649 10655 10659 10661 10660 10659 10657 10656 10656 10655 10652 10647 10642
10345 10348 10352 10359 10368 10375 10382 10390 10401 10411 10419 10427 10433 10443 10454 10466 10477 10488 10501 10515 10528 10542 10553 10566 10578 10588 10597 10610 10621 10628 10635 10642 10646 10647 10648 10646 10648 10646 10647 10645 10642 10637 10633
10326 10329 10334 10340 10347 10354 10361 10365 10373 10385 10396 10404 10412 10422 10434 10445 10456 10470 10482 10496 10511 10525 10537 10548 10563 10575 10587 10598 10607 10615 10623 10628 10632 10636 10636 10636 10637 10637 10638 10636 10632 10628 10624
10306 10312 10317 10323 10329 10336 10342 10348 10354 10364 10373 10384 10394 10402 10415 10428 10441 10452 10466 10481 10495 10510 10522 10534 10548 10562 10575 10584 10592 10601 10608 10615 10618 10622 10624 10627 10628 10628 10628 10626 10622 10619 10614
10296 10302 10307 10314 10319 10321 10326 10333 10339 10346 10354 10363 10373 10382 10393 10403 10416 10430 10447 10467 10480 10495 10508 10520 10535 10552 10563 10573 10582 10589 10596 10601 10604 10610 10614 10616 10619 10619 10618 10616 10613 10610 10605
10289 10293 10297 10300 10306 10312 10317 10322 10327 10334 10342 10351 10359 10365 10375 10382 10394 10408 10425 10448 10466 10479 10493 10507 10526 10540 10551 10562 10570 10578 10585 10589 10594 10600 10605 10608 10609 10609 10609 10606 10603 10600 10595
10281 10283 10287 10292 10296 10300 10305 10310 10317 10324 10331 10337 10345 10352 10359 10368 10382 10390 10404 10419 10445 10462 10479 10500 10516 10531 10543 10553 10563 10570 10576 10580 10585 10592 10596 10598 10599 10600 10598 10597 10594 10589 10586
10273 10277 10281 10284 10287 10291 10295 10300 10306 10312 10319 10327 10334 10340 10349 10360 10369 10378 10390 10406 10423 10451 10472 10492 10508 10522 10535 10545 10553 10560 10567 10571 10577 10583 10586 10588 10589 10589 10587 10587 10582 10580 10577
10269 10271 10275 10279 10282 10285 10288 10293 10299 10304 10310 10316 10323 10331 10340 10348 10358 10369 10384 10404 10421 10444 10467 10485 10500 10516 10529 10537 10543 10551 10558 10565 10571 10575 10577 10578 10578 10578 10576 10574 10572 10570 10570
10267 10269 10272 10274 10279 10282 10285 10289 10293 10299 10304 10310 10317 10324 10333 10343 10354 10368 10384 10401 10421 10441 10462 10481 10497 10514 10524 10530 10536 10545 10553 10560 10563 10566 10566 10567 10566 10565 10564 10563 10562 10562 10563
10277 10277 10278 10279 10281 10282 10285 10288 10291 10295 10300 10307 10315 10323 10332 10343 10356 10370 10384 10402 10421 10437 10461 10478 10496 10506 10515 10524 10533 10543 10550 10554 10555 10556 10555 10554 10552 10551 10550 10552 10554 10556 10559
10286 10285 10285 10286 10286 10287 10289 10292 10295 10299 10303 10309 10316 10323 10332 10345 10358 10376 10392 10407 10423 10444 10463 10478 10489 10501 10513 10523 10532 10539 10544 10546 10546 10545 10543 10541 10539 10537 10538 10541 10546 10552 10555
10305 10301 10299 10297 10297 10296 10296 10298 10301 10304 10308 10313 10320 10327 10337 10350 10365 10379 10394 10413 10431 10448 10464 10477 10488 10500 10512 10521 10528 10533 10537 10536 10535 10534 10533 10531 10529 10528 10532 10539 10544 10549 10552
10327 10322 10316 10313 10312 10312 10312 10314 10314 10317 10321 10325 10331 10340 10352 10364 10378 10393 10405 10422 10438 10452 10464 10477 10490 10501 10510 10518 10522 10525 10527 10529 10530 10531 10529 10529 10530 10532 10536 10540 10544 10547 10549
10346 10340 10338 10336 10334 10333 10334 10334 10333 10337 10341 10345 10351 10360 10372 10382 10393 10405 10418 10431 10444 10456 10468 10480 10491 10501 10508 10512 10516 10521 10524 10527 10527 10527 10529 10531 10533 10535 10537 10540 10542 10544 10545
10368 10365 10361 10360 10359 10359 10358 10358 10361 10363 10367 10370 10375 10382 10387 10395 10405 10417 10428 10441 10454 10466 10473 10482 10492 10499 10503 10509 10515 10519 10521 10524 10524 10527 10530 10531 10532 10533 10535 10537 10539 10540 10541
10384 10383 10382 10381 10380 10381 10383 10385 10388 10390 10391 10394 10399 10405 10412 10418 10425 10435 10445 10454 10462 10468 10476 10484 10491 10496 10502 10509 10513 10517 10520 10522 10524 10527 10529 10529 10529 10530 10532 10534 10535 10537 10537
10399 10397 10395 10395 10396 10396 10398 10399 10403 10404 10407 10410 10415 10420 10427 10434 10440 10443 10450 10457 10463 10469 10476 10483 10489 10496 10503 10509 10512 10515 10518 10521 10523 10525 10525 10525 10526 10527 10529 10530 10532 10533 10534
10406 10405 10404 10403 10404 10406 10408 10410 10413 10414 10416 10419 10420 10424 10428 10435 10441 10447 10452 10458 10463 10469 10475 10481 10488 10497 10503 10507 10511 10514 10517 10519 10520 10521 10521 10521 10522 10523 10525 10527 10528 10529 10529